Location: Mesa Vista Observatory
(35.5777°N, 105.6987°W)
Time: 07:07:18
(UTC-06:00)

Altair - Visible Passes

Search period start: 26 September 2020 00:00
Search period end: 06 October 2020 00:00
Orbit: 1501 x 1682 km, 47.2° (Epoch: 25 September)

Date Brightness Start Highest point End Pass type
(mag) Time Alt. Az. Time Alt. Az. Time Alt. Az.
26 Sep 8.0 19:12:13 10° WNW 19:22:09 53° NNE 19:31:54 10° E visible
26 Sep 7.6 21:17:26 10° WNW 21:27:31 72° SW 21:29:57 55° SSE visible
26 Sep 9.4 23:24:39 10° W 23:27:58 17° W 23:27:58 17° W visible
27 Sep 7.6 20:52:10 10° WNW 21:02:20 77° SW 21:06:20 42° SE visible
27 Sep 9.1 22:58:59 10° W 23:04:22 21° WSW 23:04:22 21° WSW visible
28 Sep 7.6 20:26:56 10° WNW 20:37:08 82° SW 20:42:48 31° SE visible
28 Sep 8.9 22:33:24 10° WNW 22:40:50 24° SW 22:40:50 24° SW visible
29 Sep 7.6 20:01:42 10° NW 20:11:55 87° SW 20:19:21 21° SE visible
29 Sep 8.8 22:07:53 10° WNW 22:15:49 27° SW 22:17:24 26° SW visible
30 Sep 7.7 19:36:28 10° NW 19:46:42 88° NE 19:56:02 13° SE visible
30 Sep 8.8 21:42:24 10° WNW 21:50:44 30° SW 21:54:05 25° SSW visible
01 Oct 7.7 19:11:14 10° NW 19:21:28 83° NE 19:31:31 10° ESE visible
01 Oct 8.7 21:16:59 10° WNW 21:25:38 34° SW 21:30:53 21° S visible
02 Oct 8.7 20:51:35 10° WNW 21:00:32 37° SW 21:07:48 15° S visible
03 Oct 8.6 20:26:14 10° WNW 20:35:25 41° SW 20:44:27 10° SSE visible
04 Oct 8.5 20:00:53 10° WNW 20:10:18 45° SW 20:19:33 10° SSE visible
05 Oct 8.5 19:35:34 10° WNW 19:45:10 49° SW 19:54:36 10° SSE visible
